Location: Jutrosin
(51.6502°N, 17.1725°E)
Time: 02:53:34
(UTC+01:00)

ISS - Visible Passes

Search period start: 23 January 2019 00:00
Search period end: 02 February 2019 00:00
Orbit: 404 x 411 km, 51.6° (Epoch: 23 January)

Date Brightness Start Highest point End Pass type
(mag) Time Alt. Az. Time Alt. Az. Time Alt. Az.
23 Jan -1.5 18:39:54 10° SSW 18:41:04 16° S 18:41:04 16° S visible
24 Jan -1.7 17:49:32 10° S 17:51:21 14° SE 17:52:03 13° SE visible
24 Jan -0.9 19:24:07 10° SW 19:24:46 15° SW 19:24:46 15° SW visible
25 Jan -2.8 18:32:59 10° SW 18:35:40 34° S 18:35:40 34° S visible
26 Jan -2.3 17:42:03 10° SSW 17:44:49 25° SSE 17:46:30 17° ESE visible
26 Jan -1.5 19:17:45 10° WSW 19:19:13 24° WSW 19:19:13 24° WSW visible
27 Jan -3.7 18:26:27 10° WSW 18:29:41 58° SSE 18:30:00 55° SE visible
28 Jan -3.1 17:35:13 10° SW 17:38:22 42° SSE 17:40:44 16° E visible
28 Jan -2.1 19:11:27 10° W 19:13:26 33° W 19:13:26 33° W visible
29 Jan -3.9 18:20:04 10° WSW 18:23:21 80° S 18:24:08 49° E visible
29 Jan -0.3 19:56:35 10° W 19:56:51 12° W 19:56:51 12° W visible
30 Jan -3.6 17:28:41 10° WSW 17:31:58 65° SSE 17:34:49 13° E visible
30 Jan -2.6 19:05:10 10° W 19:07:31 43° W 19:07:31 43° W visible
31 Jan -3.9 18:13:43 10° W 18:17:02 88° N 18:18:11 38° E visible
31 Jan -0.6 19:50:16 10° W 19:50:54 15° W 19:50:54 15° W visible
01 Feb -3.8 17:22:16 10° W 17:25:35 85° SSE 17:28:51 10° E visible
01 Feb -3.2 18:58:48 10° W 19:01:34 57° W 19:01:34 57° W visible
